| time (UTC) | temp F | wind direction | speed MPH | gust MPH | rain 1hr in | rain 24hr in | rain mn in | humidity % | barometer mb |
| 20260503043023 | 70 | 352 | 0.0 | 0.0 | 0.00 | 0.00 | 0.00 | 95 | 1014.4 |
| 20260503041528 | 70 | 352 | 0.0 | 0.0 | 0.00 | 0.00 | 0.00 | 95 | 1014.4 |
| 20260503040026 | 70 | 360 | 0.0 | 0.0 | 0.00 | 0.00 | 0.00 | 95 | 1014.1 |
| 20260503034516 | 70 | 360 | 0.0 | 0.0 | 0.00 | 0.00 | 0.00 | 94 | 1013.7 |
| 20260503033026 | 70 | 51 | 0.0 | 0.0 | 0.00 | 0.00 | 0.00 | 94 | 1013.5 |
| 20260503031527 | 70 | 9 | 0.0 | 0.0 | 0.00 | 0.00 | 0.00 | 94 | 1013.3 |
| 20260503030028 | 70 | 9 | 0.0 | 0.0 | 0.00 | 0.00 | 0.00 | 93 | 1012.9 |
| 20260503024511 | 70 | 352 | 0.0 | 0.0 | 0.00 | 0.00 | 0.00 | 93 | 1013.0 |
| 20260503023019 | 70 | 267 | 0.0 | 7.0 | 0.00 | 0.00 | 0.00 | 93 | 1013.3 |
| 20260503021524 | 70 | 234 | 4.0 | 7.0 | 0.00 | 0.00 | 0.00 | 93 | 1013.3 |
| 20260503020024 | 70 | 351 | 4.0 | 7.0 | 0.00 | 0.00 | 0.00 | 93 | 1013.4 |
| 20260503014525 | 70 | 236 | 1.0 | 8.0 | 0.00 | 0.00 | 0.00 | 93 | 1012.5 |
| 20260503013015 | 70 | 248 | 0.0 | 1.0 | 0.00 | 0.00 | 0.00 | 93 | 1012.0 |
| 20260503011520 | 70 | 234 | 5.0 | 8.0 | 0.00 | 0.00 | 0.00 | 94 | 1012.0 |
| 20260503010026 | 70 | 42 | 1.0 | 11.0 | 0.00 | 0.00 | 0.00 | 94 | 1012.0 |
| 20260503004531 | 70 | 173 | 3.0 | 8.0 | 0.00 | 0.00 | 0.00 | 94 | 1011.6 |
| 20260503003046 | 70 | 49 | 0.0 | 9.0 | 0.00 | 0.00 | 0.00 | 94 | 1011.0 |
| 20260503001541 | 71 | 141 | 2.0 | 8.0 | 0.00 | 0.00 | 0.00 | 94 | 1011.1 |
| 20260503000023 | 71 | 136 | 3.0 | 5.0 | 0.00 | 0.00 | 0.00 | 94 | 1011.3 |
| 20260502234533 | 71 | 113 | 0.0 | 5.0 | 0.00 | 0.00 | 0.00 | 94 | 1011.7 |
| 20260502233031 | 71 | 150 | 1.0 | 3.0 | 0.00 | 0.00 | 0.00 | 93 | 1011.7 |
| 20260502231528 | 71 | 130 | 0.0 | 0.0 | 0.00 | 0.00 | 0.00 | 93 | 1011.7 |
| 20260502230031 | 71 | 352 | 0.0 | 0.0 | 0.00 | 0.00 | 0.00 | 94 | 1011.9 |
| 20260502224506 | 70 | 351 | 0.0 | 7.0 | 0.00 | 0.00 | 0.00 | 94 | 1011.9 |
| 20260502223015 | 71 | 254 | 0.0 | 1.0 | 0.00 | 0.00 | 0.00 | 94 | 1011.5 |
| 20260502221514 | 70 | 352 | 0.0 | 10.0 | 0.00 | 0.00 | 0.00 | 93 | 1011.4 |
| 20260502220022 | 71 | 351 | 12.0 | 21.0 | 0.00 | 0.00 | 0.00 | 90 | 1012.5 |
| 20260502214504 | 77 | 351 | 15.0 | 26.0 | 0.00 | 0.00 | 0.00 | 73 | 1011.7 |
| 20260502213006 | 84 | 351 | 6.0 | 12.0 | 0.00 | 0.00 | 0.00 | 63 | 1011.1 |
| 20260502211517 | 84 | 269 | 8.0 | 12.0 | 0.00 | 0.00 | 0.00 | 60 | 1010.6 |
| 20260502210017 | 84 | 340 | 9.0 | 14.0 | 0.00 | 0.00 | 0.00 | 59 | 1010.4 |
| 20260502204523 | 85 | 265 | 8.0 | 15.0 | 0.00 | 0.00 | 0.00 | 60 | 1010.3 |
| 20260502203005 | 86 | 351 | 13.0 | 18.0 | 0.00 | 0.00 | 0.00 | 58 | 1010.3 |
| 20260502201514 | 87 | 351 | 14.0 | 21.0 | 0.00 | 0.00 | 0.00 | 56 | 1010.3 |
| 20260502200016 | 87 | 251 | 16.0 | 21.0 | 0.00 | 0.00 | 0.00 | 53 | 1010.4 |
| 20260502194528 | 88 | 259 | 16.0 | 25.0 | 0.00 | 0.00 | 0.00 | 55 | 1010.4 |
| 20260502193025 | 88 | 267 | 14.0 | 21.0 | 0.00 | 0.00 | 0.00 | 56 | 1010.2 |
| 20260502191507 | 88 | 188 | 13.0 | 28.0 | 0.00 | 0.00 | 0.00 | 56 | 1010.4 |
| 20260502190011 | 88 | 252 | 11.0 | 25.0 | 0.00 | 0.00 | 0.00 | 57 | 1010.6 |
| 20260502184522 | 88 | 261 | 16.0 | 30.0 | 0.00 | 0.00 | 0.00 | 56 | 1010.7 |
| 20260502183023 | 88 | 253 | 19.0 | 29.0 | 0.00 | 0.00 | 0.00 | 56 | 1010.8 |
| 20260502181508 | 88 | 19 | 17.0 | 24.0 | 0.00 | 0.00 | 0.00 | 57 | 1011.1 |
| 20260502163029 | 87 | 264 | 18.0 | 32.0 | 0.00 | 0.00 | 0.00 | 60 | 1011.5 |
| 20260502161524 | 86 | 244 | 14.0 | 27.0 | 0.00 | 0.00 | 0.00 | 64 | 1011.6 |
| 20260502151523 | 84 | 232 | 20.0 | 28.0 | 0.00 | 0.00 | 0.00 | 68 | 1011.6 |
| 20260502123014 | 72 | 17 | 0.0 | 3.0 | 0.00 | 0.00 | 0.00 | 93 | 1010.7 |
| 20260502121519 | 70 | 137 | 0.0 | 8.0 | 0.00 | 0.00 | 0.00 | 95 | 1010.7 |
| 20260502114524 | 66 | 111 | 2.0 | 6.0 | 0.00 | 0.00 | 0.00 | 96 | 1010.5 |
| 20260502113012 | 65 | 150 | 3.0 | 7.0 | 0.00 | 0.00 | 0.00 | 96 | 1010.4 |
| 20260502111516 | 64 | 139 | 4.0 | 5.0 | 0.00 | 0.00 | 0.00 | 96 | 1010.3 |
| 20260502110025 | 64 | 149 | 0.0 | 0.0 | 0.00 | 0.00 | 0.00 | 96 | 1010.5 |
| 20260502104534 | 64 | 133 | 0.0 | 0.0 | 0.00 | 0.00 | 0.00 | 96 | 1010.5 |
| 20260502103028 | 65 | 126 | 0.0 | 0.0 | 0.00 | 0.00 | 0.00 | 96 | 1010.6 |
| 20260502101514 | 65 | 132 | 0.0 | 0.0 | 0.00 | 0.00 | 0.00 | 96 | 1010.6 |
| 20260502091511 | 64 | 140 | 0.0 | 1.0 | 0.00 | 0.00 | 0.00 | 96 | 1011.0 |
| 20260502071527 | 65 | 112 | 0.0 | 0.0 | 0.00 | 0.00 | 0.00 | 95 | 1011.0 |
| 20260502070033 | 66 | 112 | 0.0 | 0.0 | 0.00 | 0.00 | 0.00 | 95 | 1011.0 |
| 20260502064517 | 66 | 112 | 0.0 | 0.0 | 0.00 | 0.00 | 0.00 | 94 | 1011.0 |
| 20260502063027 | 66 | 112 | 0.0 | 0.0 | 0.00 | 0.00 | 0.00 | 94 | 1011.3 |
| 20260502061528 | 67 | 112 | 0.0 | 0.0 | 0.00 | 0.00 | 0.00 | 94 | 1011.2 |
| 20260502060032 | 67 | 112 | 0.0 | 0.0 | 0.00 | 0.00 | 0.00 | 94 | 1011.4 |
| 20260502054532 | 67 | 112 | 0.0 | 0.0 | 0.00 | 0.00 | 0.00 | 94 | 1011.4 |
| 20260502053025 | 67 | 112 | 0.0 | 0.0 | 0.00 | 0.00 | 0.00 | 93 | 1011.5 |
| 20260502051514 | 68 | 352 | 0.0 | 0.0 | 0.00 | 0.00 | 0.00 | 93 | 1011.9 |
| 20260502050009 | 68 | 239 | 0.0 | 0.0 | 0.00 | 0.00 | 0.00 | 93 | 1011.9 |
| 20260502044513 | 68 | 352 | 0.0 | 0.0 | 0.00 | 0.00 | 0.00 | 93 | 1011.8 |